User: anonymous   Login
Location: Unspecified
(0.0000°N, 0.0000°E)
Time: 21:43:59
(UTC+00:00)
Language:

AEHF 1 (USA 214) - Orbit

View from above orbital plane
View from above orbital plane
View from above satellite
View from above satellite

Ground track
Ground track

The orbit data is extracted from the following two-line orbital elements,

1 36868U 10039A   16207.00067113 0.00000000  00000-0  00000-0 0    01
2 36868   0.8019 235.1251 0002000 205.4500 154.6090  1.00270000    03
Epoch (UTC): 25 July 2016 00:00:57
Eccentricity: 0.0002000
inclination: 0.8019°
perigee height: 35778 km
apogee height: 35795 km
right ascension of ascending node: 235.1251°
argument of perigee: 205.4500°
revolutions per day: 1.00270000
mean anomaly at epoch: 154.6090°
orbit number at epoch: 0

The dashed part of the orbit path shows where the satellite is in the earth's shadow,  

DLR